Temp
20 19 18 17 17 18 19 19 19 16 14 13 13 15 16 15 15 14 13 12 11 11 11 11 11 10 10 10 11 10 11 12
19 18 17 16 16 17 18 18 18 15 14 13 13 15 15 15 14 14 14 13 11 11 11 11 11 11 10 10 11 11 11 11
18 17 16 15 15 17 17 15 15 13 13 12 12 14 15 15 15 14 14 12 12 11 11 10 11 11 10 10 10 11 11 10
17 16 15 15 15 14 14 14 13 13 12 12 12 14 14 14 14 14 13 11 11 11 11 10 11 11 10 10 10 10 11 10
16 15 15 15 14 13 13 13 15 14 11 12 12 14 15 16 16 15 11 11 11 11 10 10 10 10 10 10 10 10 11 10
15 15 15 15 13 14 12 12 16 12 12 12 12 12 12 13 15 14 11 11 11 10 10 10 10 10 10 10 9 9 10 10
15 15 14 14 13 12 14 13 12 12 12 13 12 12 12 11 12 11 11 11 11 11 10 10 10 10 10 10 10 9 10 10
14 14 14 13 13 12 11 12 11 12 12 12 12 12 11 11 11 11 11 11 11 11 10 10 10 10 10 10 9 9 10 10
14 13 13 12 12 12 12 11 10 11 11 12 12 13 13 12 11 11 11 11 11 11 10 10 10 10 10 10 10 10 10 10
13 13 13 12 11 10 11 11 10 10 11 11 12 12 11 11 11 11 11 12 11 10 10 10 10 9 10 10 10 10 10 10
13 13 12 12 11 10 11 10 10 10 11 11 11 12 11 10 11 11 11 11 10 11 10 10 10 10 9 9 10 10 10 11
13 12 12 12 11 10 11 10 10 10 10 10 11 11 10 10 11 10 11 11 11 11 10 10 10 10 10 10 10 10 10 10
12 12 12 11 10 9 10 10 9 9 9 10 10 11 10 9 10 10 10 10 10 10 10 10 10 10 10 10 10 9 10 8
13 12 11 10 9 8 9 9 9 9 9 9 10 10 10 9 9 9 10 10 10 10 10 10 10 9 9 10 10 10 10 10
12 12 11 10 9 10 9 9 8 9 9 9 10 10 9 10 9 10 9 9 9 9 9 10 9 10 9 10 10 10 10 10
12 11 10 9 7 9 9 9 7 8 9 9 9 9 9 9 9 9 9 9 9 9 9 10 10 10 9 9 9 9 9 8
10 9 8 7 5 7 9 8 7 7 9 9 9 9 9 9 9 9 9 9 9 9 9 9 9 9 9 9 9 9 8 8
8 7 6 5 4 6 7 9 7 7 8 9 9 9 9 9 9 9 9 9 9 9 9 9 9 9 9 9 9 9 8 8
6 5 4 3 3 3 6 8 7 7 8 9 9 9 9 8 9 9 9 9 8 9 9 8 8 8 8 8 8 8 8 8
Height
1443 1443 1442 1440 1439 1437 1436 1437 1436 1437 1440 1443 1445 1447 1451 1457 1460 1463 1467 1468 1471 1476 1480 1484 1487 1493 1495 1504 1511 1520 1526 1530
1439 1437 1436 1434 1432 1429 1427 1426 1426 1428 1430 1433 1435 1437 1443 1450 1454 1457 1460 1463 1465 1469 1473 1476 1480 1484 1488 1495 1504 1513 1521 1525
1435 1433 1431 1428 1425 1423 1421 1419 1419 1421 1421 1426 1430 1435 1439 1444 1449 1451 1452 1456 1459 1462 1466 1470 1471 1476 1480 1488 1498 1507 1515 1519
1432 1430 1428 1426 1423 1418 1417 1416 1414 1415 1420 1421 1426 1429 1434 1438 1440 1442 1445 1450 1453 1456 1460 1462 1460 1467 1472 1479 1490 1498 1506 1514
1430 1428 1426 1422 1418 1413 1412 1411 1409 1410 1414 1416 1420 1422 1425 1429 1432 1435 1440 1444 1447 1449 1452 1454 1451 1456 1464 1472 1483 1493 1501 1506
1427 1426 1422 1420 1413 1408 1407 1406 1404 1407 1410 1415 1418 1423 1427 1428 1428 1431 1435 1437 1440 1443 1444 1446 1448 1452 1459 1467 1476 1487 1494 1501
1426 1423 1420 1415 1411 1407 1403 1401 1402 1405 1408 1412 1416 1421 1423 1425 1426 1428 1430 1431 1434 1437 1439 1440 1443 1446 1454 1462 1470 1480 1490 1497
1422 1419 1416 1412 1409 1406 1402 1399 1401 1402 1404 1409 1412 1415 1418 1421 1424 1426 1427 1428 1429 1433 1437 1439 1440 1444 1449 1457 1464 1477 1485 1492
1418 1416 1414 1410 1407 1403 1401 1400 1398 1398 1401 1403 1407 1410 1413 1416 1419 1424 1424 1425 1428 1431 1434 1437 1440 1443 1449 1455 1464 1473 1481 1488
1415 1415 1412 1409 1404 1399 1399 1398 1397 1395 1396 1400 1403 1407 1411 1413 1416 1420 1421 1423 1427 1430 1433 1436 1439 1441 1446 1452 1460 1468 1475 1482
1412 1411 1408 1405 1402 1397 1395 1395 1394 1392 1393 1395 1398 1402 1405 1408 1411 1414 1418 1420 1424 1428 1429 1432 1437 1441 1443 1449 1456 1464 1470 1475
1409 1407 1404 1402 1399 1396 1391 1390 1389 1388 1389 1391 1394 1398 1402 1404 1405 1409 1413 1417 1421 1424 1426 1429 1431 1436 1442 1447 1452 1457 1464 1470
1406 1404 1401 1399 1396 1393 1387 1385 1384 1384 1385 1387 1391 1395 1399 1401 1402 1404 1409 1412 1417 1420 1424 1426 1427 1431 1435 1440 1447 1451 1456 1462
1401 1400 1399 1396 1392 1389 1384 1380 1379 1379 1380 1384 1387 1391 1395 1397 1400 1401 1405 1408 1412 1415 1418 1421 1425 1428 1430 1430 1437 1443 1448 1454
1396 1396 1396 1395 1390 1385 1380 1376 1375 1374 1376 1379 1382 1386 1390 1394 1396 1397 1401 1404 1408 1411 1413 1416 1418 1420 1421 1423 1425 1434 1440 1446
1393 1392 1393 1392 1387 1380 1378 1373 1372 1370 1372 1375 1378 1382 1386 1390 1392 1394 1398 1402 1406 1408 1410 1412 1413 1414 1414 1414 1418 1423 1432 1436
1391 1390 1390 1387 1383 1376 1372 1370 1369 1366 1368 1371 1375 1378 1382 1386 1388 1392 1396 1400 1403 1405 1407 1409 1409 1410 1412 1413 1417 1420 1425 1431
1391 1389 1386 1384 1381 1374 1369 1366 1367 1364 1364 1366 1370 1375 1378 1382 1385 1389 1394 1397 1401 1403 1406 1407 1408 1409 1411 1414 1417 1421 1424 1431
1389 1387 1383 1380 1376 1370 1365 1363 1362 1360 1359 1362 1366 1370 1374 1380 1381 1386 1390 1394 1398 1402 1404 1406 1408 1409 1411 1414 1416 1420 1425 1431
Wind_Speed
10 11 12 13 15 19 26 29 31 28 25 29 34 39 40 36 35 32 30 31 33 35 36 40 45 42 45 42 37 31 29 28
9 10 11 13 15 15 19 25 27 24 27 33 40 43 40 38 35 28 30 30 29 31 36 37 43 47 49 47 43 36 31 31
9 12 15 15 18 16 14 15 18 22 26 34 36 38 37 35 31 27 28 29 28 30 37 37 47 51 55 51 49 39 34 34
9 14 15 15 17 16 13 11 16 19 22 27 27 33 34 32 30 27 28 27 28 33 36 40 45 55 56 55 53 45 37 36
8 13 15 16 18 16 9 9 14 17 24 28 31 32 35 32 26 25 26 27 28 31 35 37 47 59 55 58 54 48 41 40
9 12 14 15 19 19 10 8 12 16 25 25 26 23 19 19 22 19 24 25 24 24 29 30 39 53 51 52 56 47 45 42
10 13 14 16 17 19 16 9 11 17 24 27 23 20 18 16 18 19 23 21 17 18 14 26 36 52 49 53 54 50 42 40
13 16 18 18 20 18 18 13 12 18 26 31 26 22 18 18 17 19 19 20 17 20 19 21 38 44 48 49 54 50 47 41
13 16 17 18 20 21 17 14 14 18 22 30 31 26 21 18 18 18 20 22 20 20 22 23 35 41 39 49 50 46 48 46
13 14 15 19 21 21 18 11 13 18 20 29 32 27 20 18 18 19 18 18 20 22 25 28 23 29 32 43 45 46 46 46
13 13 14 18 21 21 12 11 14 17 21 28 33 28 22 21 21 21 21 19 20 22 29 28 30 28 30 41 42 42 43 44
11 11 15 18 18 18 18 12 16 15 21 25 30 26 22 22 26 23 22 21 20 21 27 26 34 34 37 43 44 39 42 44
10 10 13 17 17 18 19 16 16 17 19 21 27 24 21 21 24 23 23 20 20 23 27 27 29 31 35 44 45 45 45 41
12 12 12 13 14 18 23 20 17 21 20 22 27 25 21 21 21 22 20 17 19 21 24 25 27 28 33 41 46 49 54 53
12 12 13 13 16 22 26 24 19 21 23 25 28 24 22 21 20 20 17 14 12 14 17 17 17 18 20 35 52 56 53 53
11 10 13 15 16 21 28 27 22 14 25 27 28 24 23 21 22 20 17 13 10 12 12 12 11 10 11 24 46 47 43 47
10 10 13 15 19 21 21 34 31 12 28 29 25 23 24 23 24 21 18 15 11 11 9 8 9 5 8 18 33 41 40 41
10 13 14 17 18 20 19 31 30 16 21 27 29 22 22 24 26 24 21 17 14 13 12 8 7 6 3 17 20 27 35 33
9 12 15 16 17 18 19 18 29 23 19 27 32 26 23 23 27 27 23 19 17 15 14 12 10 9 6 8 17 24 30 30
Wind_Direction
272 284 292 288 286 277 265 257 257 245 232 220 219 224 230 229 231 234 241 244 233 227 235 230 226 228 212 204 206 187 189 183
290 310 326 319 300 294 281 258 247 230 226 213 218 221 223 226 232 238 245 232 224 226 233 230 231 229 213 202 201 186 189 184
317 326 328 325 324 300 286 261 240 224 221 214 219 221 223 228 235 241 238 225 226 226 224 231 223 222 215 203 196 187 187 181
336 343 344 332 327 311 276 256 237 218 208 212 208 217 222 225 231 236 230 227 228 229 232 235 221 226 210 202 195 186 185 183
351 342 346 347 339 333 286 258 253 230 207 213 206 212 214 222 232 235 222 225 233 238 243 239 210 207 211 204 199 190 187 182
346 348 343 346 349 351 319 271 268 237 213 206 203 207 213 225 228 228 221 230 237 236 239 232 233 219 217 206 194 188 189 185
354 352 345 348 350 341 343 292 266 237 215 204 203 208 210 214 215 217 220 224 231 219 231 235 207 204 204 207 197 194 191 189
0 359 353 346 345 342 330 320 258 243 217 213 204 209 211 218 213 220 213 219 224 216 219 223 218 213 212 209 198 194 199 194
5 2 356 350 346 342 327 294 269 246 227 222 215 215 221 212 220 216 215 223 223 223 222 220 218 216 219 200 199 203 207 204
356 355 355 354 349 351 337 288 271 248 235 226 223 220 211 205 211 209 219 220 219 224 224 219 213 211 212 200 200 210 210 208
342 347 350 350 344 338 330 310 296 258 242 225 224 218 208 206 204 210 217 218 227 229 226 222 217 208 197 199 204 215 216 217
328 334 340 339 336 336 322 301 311 274 243 230 220 214 209 212 215 213 221 220 223 227 235 232 221 213 208 201 210 212 216 219
313 326 337 341 338 336 325 307 292 286 246 226 214 207 202 206 209 211 218 217 229 235 235 233 226 234 224 219 217 215 217 216
301 312 330 343 346 344 345 333 287 281 250 226 209 204 204 206 203 209 212 215 221 229 232 232 239 236 229 225 224 226 225 226
294 297 307 325 341 345 346 345 304 260 250 225 206 202 207 202 197 203 206 207 213 219 216 221 228 234 247 241 229 226 227 232
285 299 305 316 326 348 347 346 323 253 246 225 209 205 201 198 198 196 194 193 210 201 204 225 228 242 269 239 224 217 228 213
303 310 312 316 322 329 339 345 331 266 235 223 200 203 198 198 195 192 190 191 190 180 178 182 175 179 240 230 217 212 209 210
314 319 321 321 322 323 326 338 324 291 223 228 204 199 194 196 194 193 190 187 184 185 183 188 176 160 193 217 203 213 207 198
333 331 330 328 325 325 327 321 315 310 227 222 207 203 200 194 194 194 188 183 184 182 183 180 175 161 157 181 207 192 183 184